Location: Jaite
(41.2884°N, 81.5737°W)
Time: 12:52:22
(UTC+00:00)

ISS - Pass Details

Date: 15 November 2025
Orbit: 416 x 421 km, 51.6° (Epoch: 06 December)

Event Time Altitude Azimuth Distance (km) Brightness Sun altitude
Rises 00:05:09 0° 254° (WSW) 2,360 1.5 -22.1°
Reaches altitude 10° 00:07:21 10° 263° (W) 1,497 0.2 -22.5°
Enters shadow 00:10:10 36° 317° (NW) 686 -2.4 -23.1°
